When you browse on this site, cookies collect data to enhance your experience and personalize the content and advertising you see.
Visit our Privacy Policy to learn more. By continuing to use the site, you agree to this use of cookies and data.
  • In Spain
  • List of Countries
  • For 7 days
  • Water Temperature
  • Satellite Maps
  • Weather Map
  • Weather Widgets
  • user-avatar
    Login

    Hourly Weather Biskira

    Today, 22 March, Friday

    Time Temperature Precipitation Wind Pressure Humidity
    00:00 +14°C° 0 mm 2 mps 752 mmHg 60%
    01:00 +14°C° 0 mm 1 mps 752 mmHg 62%
    02:00 +14°C° 0 mm 1 mps 752 mmHg 64%
    03:00 +12°C° 0 mm 0 mps 752 mmHg 66%
    04:00 +12°C° 0.2 mm 0 mps 752 mmHg 66%
    05:00 +13°C° 0.2 mm 1 mps 753 mmHg 66%
    06:00 +13°C° 0 mm 1 mps 753 mmHg 66%
    07:00 +14°C° 0.2 mm 1 mps 753 mmHg 63%
    08:00 +13°C° 0.2 mm 0 mps 753 mmHg 61%
    09:00 +13°C° 0.2 mm 0 mps 754 mmHg 58%
    10:00 +16°C° 0 mm 1 mps 754 mmHg 52%
    11:00 +18°C° 0 mm 1 mps 754 mmHg 46%
    12:00 +19°C° 0 mm 1 mps 754 mmHg 40%
    13:00 +19°C° 0 mm 1 mps 753 mmHg 38%
    14:00 +20°C° 0 mm 1 mps 753 mmHg 36%
    15:00 +20°C° 0 mm 1 mps 753 mmHg 35%
    16:00 +19°C° 0 mm 2 mps 753 mmHg 35%
    17:00 +19°C° 0 mm 2 mps 753 mmHg 35%
    18:00 +19°C° 0 mm 2 mps 753 mmHg 35%
    19:00 +19°C° 0 mm 2 mps 754 mmHg 37%
    20:00 +18°C° 0 mm 2 mps 754 mmHg 40%
    21:00 +18°C° 0 mm 2 mps 755 mmHg 43%
    22:00 +17°C° 0 mm 2 mps 755 mmHg 45%
    23:00 +17°C° 0 mm 3 mps 755 mmHg 48%

    Tomorrow, 23 March, Saturday

    Time Temperature Precipitation Wind Pressure Humidity
    00:00 +16°C° 0 mm 3 mps 755 mmHg 50%
    01:00 +16°C° 0 mm 3 mps 755 mmHg 51%
    02:00 +14°C° 0 mm 3 mps 755 mmHg 53%
    03:00 +14°C° 0 mm 3 mps 755 mmHg 54%
    04:00 +14°C° 0 mm 4 mps 755 mmHg 55%
    05:00 +14°C° 0 mm 4 mps 755 mmHg 56%
    06:00 +14°C° 0 mm 5 mps 755 mmHg 57%
    07:00 +15°C° 0 mm 4 mps 756 mmHg 53%
    08:00 +17°C° 0 mm 4 mps 756 mmHg 49%
    09:00 +18°C° 0 mm 3 mps 756 mmHg 45%
    10:00 +19°C° 0 mm 3 mps 756 mmHg 42%
    11:00 +19°C° 0 mm 2 mps 756 mmHg 40%
    12:00 +21°C° 0 mm 1 mps 756 mmHg 38%
    13:00 +21°C° 0 mm 1 mps 756 mmHg 37%
    14:00 +22°C° 0 mm 1 mps 755 mmHg 37%
    15:00 +22°C° 0 mm 1 mps 755 mmHg 36%
    16:00 +21°C° 0 mm 2 mps 755 mmHg 37%
    17:00 +21°C° 0 mm 3 mps 755 mmHg 38%
    18:00 +21°C° 0 mm 3 mps 756 mmHg 39%
    19:00 +20°C° 0 mm 3 mps 756 mmHg 42%
    20:00 +19°C° 0 mm 3 mps 757 mmHg 45%
    21:00 +19°C° 0 mm 2 mps 758 mmHg 48%
    22:00 +18°C° 0 mm 2 mps 758 mmHg 50%
    23:00 +17°C° 0 mm 2 mps 758 mmHg 52%

    Day after tomorrow, 24 March, Sunday

    Time Temperature Precipitation Wind Pressure Humidity
    00:00 +17°C° 0 mm 2 mps 758 mmHg 54%
    01:00 +16°C° 0 mm 2 mps 758 mmHg 54%
    02:00 +16°C° 0 mm 2 mps 758 mmHg 55%
    03:00 +15°C° 0 mm 1 mps 758 mmHg 56%
    04:00 +15°C° 0 mm 1 mps 758 mmHg 56%
    05:00 +14°C° 0 mm 1 mps 758 mmHg 57%
    06:00 +14°C° 0 mm 1 mps 759 mmHg 57%
    07:00 +15°C° 0 mm 1 mps 759 mmHg 53%
    08:00 +18°C° 0 mm 1 mps 759 mmHg 48%
    09:00 +19°C° 0 mm 1 mps 759 mmHg 43%
    10:00 +19°C° 0 mm 2 mps 759 mmHg 40%
    11:00 +19°C° 0 mm 2 mps 759 mmHg 36%
    12:00 +20°C° 0 mm 3 mps 759 mmHg 33%
    13:00 +20°C° 0 mm 2 mps 758 mmHg 32%
    14:00 +21°C° 0 mm 2 mps 758 mmHg 31%
    15:00 +21°C° 0 mm 2 mps 757 mmHg 30%
    16:00 +21°C° 0 mm 2 mps 757 mmHg 31%
    17:00 +21°C° 0 mm 2 mps 757 mmHg 32%
    18:00 +20°C° 0 mm 2 mps 757 mmHg 33%
    19:00 +20°C° 0 mm 2 mps 758 mmHg 35%
    20:00 +20°C° 0 mm 1 mps 758 mmHg 37%
    21:00 +20°C° 0 mm 1 mps 759 mmHg 40%
    22:00 +19°C° 0 mm 1 mps 759 mmHg 42%
    23:00 +18°C° 0 mm 1 mps 759 mmHg 44%

    25 March, Monday

    Time Temperature Precipitation Wind Pressure Humidity
    00:00 +18°C° 0 mm 1 mps 758 mmHg 47%
    01:00 +18°C° 0 mm 1 mps 758 mmHg 47%
    02:00 +16°C° 0 mm 1 mps 758 mmHg 47%
    03:00 +16°C° 0 mm 1 mps 758 mmHg 48%
    04:00 +16°C° 0 mm 1 mps 758 mmHg 48%
    05:00 +16°C° 0 mm 1 mps 758 mmHg 49%
    06:00 +15°C° 0 mm 1 mps 758 mmHg 49%
    07:00 +18°C° 0 mm 1 mps 758 mmHg 45%
    08:00 +19°C° 0 mm 1 mps 758 mmHg 41%
    09:00 +20°C° 0 mm 1 mps 758 mmHg 37%
    10:00 +21°C° 0 mm 1 mps 758 mmHg 35%
    11:00 +22°C° 0 mm 1 mps 758 mmHg 34%
    12:00 +21°C° 0 mm 2 mps 757 mmHg 32%
    13:00 +23°C° 0 mm 2 mps 757 mmHg 31%
    14:00 +23°C° 0 mm 2 mps 756 mmHg 29%
    15:00 +24°C° 0 mm 2 mps 755 mmHg 28%
    16:00 +24°C° 0 mm 2 mps 755 mmHg 29%
    17:00 +23°C° 0 mm 1 mps 755 mmHg 29%
    18:00 +23°C° 0 mm 1 mps 755 mmHg 30%
    19:00 +22°C° 0 mm 1 mps 755 mmHg 32%
    20:00 +22°C° 0 mm 1 mps 756 mmHg 34%
    21:00 +19°C° 0 mm 0 mps 756 mmHg 37%
    22:00 +18°C° 0 mm 0 mps 756 mmHg 38%
    23:00 +18°C° 0 mm 0 mps 756 mmHg 39%

    26 March, Tuesday

    Time Temperature Precipitation Wind Pressure Humidity
    00:00 +19°C° 0 mm 1 mps 756 mmHg 41%
    01:00 +19°C° 0 mm 1 mps 756 mmHg 42%
    02:00 +18°C° 0 mm 1 mps 755 mmHg 42%
    03:00 +18°C° 0 mm 1 mps 755 mmHg 43%
    04:00 +18°C° 0 mm 1 mps 755 mmHg 43%
    05:00 +18°C° 0 mm 1 mps 755 mmHg 43%
    06:00 +18°C° 0 mm 1 mps 755 mmHg 43%
    07:00 +19°C° 0 mm 1 mps 755 mmHg 38%
    08:00 +21°C° 0 mm 1 mps 755 mmHg 33%
    09:00 +21°C° 0 mm 0 mps 756 mmHg 29%
    10:00 +24°C° 0 mm 1 mps 755 mmHg 27%
    11:00 +25°C° 0 mm 2 mps 755 mmHg 26%
    12:00 +26°C° 0 mm 2 mps 755 mmHg 24%
    13:00 +26°C° 0 mm 2 mps 755 mmHg 24%
    14:00 +27°C° 0 mm 2 mps 754 mmHg 23%
    15:00 +27°C° 0 mm 2 mps 754 mmHg 23%
    16:00 +27°C° 0 mm 2 mps 754 mmHg 24%
    17:00 +26°C° 0 mm 2 mps 754 mmHg 25%
    18:00 +26°C° 0 mm 3 mps 755 mmHg 26%
    19:00 +25°C° 0 mm 2 mps 755 mmHg 27%
    20:00 +24°C° 0 mm 2 mps 756 mmHg 29%
    21:00 +24°C° 0 mm 2 mps 756 mmHg 30%
    22:00 +23°C° 0 mm 2 mps 756 mmHg 30%
    23:00 +23°C° 0 mm 2 mps 756 mmHg 31%

    27 March, Wednesday

    Time Temperature Precipitation Wind Pressure Humidity
    00:00 +23°C° 0 mm 2 mps 756 mmHg 31%
    01:00 +21°C° 0 mm 3 mps 756 mmHg 35%
    02:00 +21°C° 0 mm 4 mps 756 mmHg 39%
    03:00 +20°C° 0 mm 5 mps 756 mmHg 43%
    04:00 +20°C° 0 mm 5 mps 757 mmHg 45%
    05:00 +19°C° 0 mm 5 mps 757 mmHg 47%
    06:00 +17°C° 0 mm 5 mps 758 mmHg 49%
    07:00 +17°C° 0 mm 6 mps 758 mmHg 47%
    08:00 +19°C° 0 mm 6 mps 758 mmHg 45%
    09:00 +18°C° 0 mm 7 mps 759 mmHg 42%
    10:00 +20°C° 0 mm 6 mps 759 mmHg 41%
    11:00 +20°C° 0 mm 6 mps 759 mmHg 39%
    12:00 +21°C° 0 mm 6 mps 759 mmHg 38%
    13:00 +21°C° 0 mm 5 mps 758 mmHg 35%
    14:00 +21°C° 0 mm 5 mps 758 mmHg 33%
    15:00 +22°C° 0 mm 4 mps 758 mmHg 31%
    16:00 +22°C° 0 mm 4 mps 758 mmHg 29%
    17:00 +21°C° 0 mm 4 mps 758 mmHg 28%
    18:00 +21°C° 0 mm 4 mps 758 mmHg 27%
    19:00 +20°C° 0 mm 4 mps 759 mmHg 26%
    20:00 +20°C° 0 mm 4 mps 759 mmHg 25%
    21:00 +19°C° 0 mm 4 mps 759 mmHg 24%
    22:00 +19°C° 0 mm 4 mps 759 mmHg 27%
    23:00 +17°C° 0 mm 5 mps 759 mmHg 31%
    Show more